TimeCST,TemperatureF,Dew PointF,Humidity,Sea Level PressureIn,VisibilityMPH,Wind Direction,Wind SpeedMPH,Gust SpeedMPH,PrecipitationIn,Events,Conditions,WindDirDegrees,DateUTC
12:15 AM,37.8,33.8,86,29.95,10.0,NW,5.8,-,N/A,,Overcast,310,2012-11-07 06:15:00
12:35 AM,38.3,33.8,84,29.95,10.0,Calm,Calm,-,N/A,,Overcast,0,2012-11-07 06:35:00
12:55 AM,37.8,33.8,86,29.96,10.0,Calm,Calm,-,N/A,,Overcast,0,2012-11-07 06:55:00
1:15 AM,37.9,33.8,85,29.96,10.0,Calm,Calm,-,N/A,,Overcast,0,2012-11-07 07:15:00
1:35 AM,37.8,34.0,86,29.97,10.0,Calm,Calm,-,N/A,,Overcast,0,2012-11-07 07:35:00
1:55 AM,37.8,34.9,89,29.97,10.0,West,3.5,-,N/A,,Overcast,280,2012-11-07 07:55:00
2:15 AM,37.8,34.9,89,29.98,10.0,West,3.5,-,N/A,,Overcast,270,2012-11-07 08:15:00
2:55 AM,37.4,34.7,90,29.99,10.0,West,3.5,-,N/A,,Overcast,260,2012-11-07 08:55:00
3:15 AM,37.4,34.9,91,29.99,10.0,West,3.5,-,N/A,,Overcast,260,2012-11-07 09:15:00
3:35 AM,37.4,35.2,92,29.99,10.0,West,4.6,-,N/A,,Overcast,260,2012-11-07 09:35:00
3:55 AM,37.4,35.2,92,30.00,10.0,West,4.6,-,N/A,,Overcast,260,2012-11-07 09:55:00
4:15 AM,37.4,35.6,93,30.00,10.0,WSW,3.5,-,N/A,,Overcast,250,2012-11-07 10:15:00
4:35 AM,37.6,35.6,93,30.01,10.0,SW,3.5,-,N/A,,Overcast,230,2012-11-07 10:35:00
4:55 AM,37.9,35.6,91,30.01,10.0,West,4.6,-,N/A,,Overcast,270,2012-11-07 10:55:00
5:15 AM,38.3,35.6,90,30.02,10.0,WNW,4.6,-,N/A,,Overcast,290,2012-11-07 11:15:00
5:35 AM,38.3,35.6,90,30.02,10.0,West,4.6,-,N/A,,Overcast,280,2012-11-07 11:35:00
5:55 AM,38.3,35.6,90,30.03,10.0,WNW,5.8,-,N/A,,Overcast,300,2012-11-07 11:55:00
6:15 AM,37.9,35.6,91,30.03,10.0,West,5.8,-,N/A,,Overcast,280,2012-11-07 12:15:00
6:35 AM,37.9,35.6,91,30.04,10.0,West,4.6,-,N/A,,Overcast,270,2012-11-07 12:35:00
6:55 AM,38.1,35.2,89,30.04,10.0,West,3.5,-,N/A,,Overcast,270,2012-11-07 12:55:00
7:15 AM,37.9,35.1,89,30.05,10.0,WNW,5.8,-,N/A,,Overcast,300,2012-11-07 13:15:00
7:35 AM,38.1,35.2,89,30.05,10.0,WNW,5.8,-,N/A,,Overcast,290,2012-11-07 13:35:00
7:55 AM,38.3,35.2,89,30.06,10.0,West,4.6,-,N/A,,Overcast,280,2012-11-07 13:55:00
8:15 AM,38.3,35.2,89,30.07,10.0,West,3.5,-,N/A,,Overcast,270,2012-11-07 14:15:00
8:35 AM,38.5,35.4,89,30.07,10.0,West,4.6,-,N/A,,Overcast,270,2012-11-07 14:35:00
8:55 AM,38.7,35.1,87,30.07,10.0,West,4.6,-,N/A,,Overcast,260,2012-11-07 14:55:00
9:15 AM,39.0,34.9,85,30.07,10.0,West,4.6,-,N/A,,Overcast,270,2012-11-07 15:15:00
9:35 AM,39.2,34.7,84,30.07,10.0,West,3.5,-,N/A,,Overcast,280,2012-11-07 15:35:00
9:55 AM,39.4,34.7,83,30.08,10.0,West,4.6,-,N/A,,Overcast,270,2012-11-07 15:55:00
10:15 AM,39.6,34.7,83,30.08,10.0,West,3.5,-,N/A,,Overcast,280,2012-11-07 16:15:00
10:35 AM,39.7,34.5,82,30.08,10.0,West,4.6,-,N/A,,Overcast,270,2012-11-07 16:35:00
10:55 AM,40.1,34.5,80,30.08,10.0,WNW,4.6,-,N/A,,Overcast,290,2012-11-07 16:55:00
11:15 AM,40.3,34.7,80,30.08,10.0,West,5.8,-,N/A,,Overcast,260,2012-11-07 17:15:00
11:35 AM,40.6,34.9,80,30.07,10.0,West,5.8,-,N/A,,Overcast,270,2012-11-07 17:35:00
11:55 AM,40.6,34.9,80,30.07,10.0,West,8.1,-,N/A,,Overcast,280,2012-11-07 17:55:00
12:15 PM,40.6,34.5,79,30.06,10.0,West,5.8,-,N/A,,Overcast,280,2012-11-07 18:15:00
12:35 PM,41.0,34.3,77,30.06,10.0,West,6.9,-,N/A,,Overcast,280,2012-11-07 18:35:00
12:55 PM,40.8,34.3,78,30.06,10.0,WNW,6.9,-,N/A,,Overcast,290,2012-11-07 18:55:00
1:15 PM,41.2,34.7,78,30.05,10.0,West,5.8,-,N/A,,Overcast,280,2012-11-07 19:15:00
1:35 PM,41.0,34.3,77,30.05,10.0,West,6.9,-,N/A,,Overcast,270,2012-11-07 19:35:00
1:55 PM,41.2,34.2,76,30.05,10.0,WSW,5.8,-,N/A,,Overcast,240,2012-11-07 19:55:00
2:15 PM,41.2,34.2,76,30.05,10.0,West,5.8,-,N/A,,Overcast,270,2012-11-07 20:15:00
2:35 PM,41.2,34.2,76,30.05,10.0,West,4.6,-,N/A,,Overcast,260,2012-11-07 20:35:00
2:55 PM,41.4,34.0,75,30.05,10.0,SW,4.6,-,N/A,,Overcast,230,2012-11-07 20:55:00
3:15 PM,41.4,34.0,75,30.06,10.0,West,3.5,-,N/A,,Overcast,260,2012-11-07 21:15:00
3:35 PM,41.4,34.0,75,30.06,10.0,Calm,Calm,-,N/A,,Overcast,0,2012-11-07 21:35:00
3:55 PM,41.2,34.0,76,30.06,10.0,Calm,Calm,-,N/A,,Overcast,0,2012-11-07 21:55:00
4:15 PM,41.0,34.2,77,30.07,10.0,Calm,Calm,-,N/A,,Overcast,0,2012-11-07 22:15:00
4:35 PM,40.1,34.0,79,30.07,10.0,Calm,Calm,-,N/A,,Overcast,0,2012-11-07 22:35:00
4:55 PM,39.4,34.0,81,30.07,10.0,SSE,3.5,-,N/A,,Overcast,150,2012-11-07 22:55:00
5:15 PM,39.2,34.2,82,30.07,10.0,SE,3.5,-,N/A,,Overcast,140,2012-11-07 23:15:00
5:35 PM,37.9,34.2,86,30.07,10.0,Calm,Calm,-,N/A,,Overcast,0,2012-11-07 23:35:00
5:55 PM,38.5,34.2,84,30.07,10.0,Calm,Calm,-,N/A,,Overcast,0,2012-11-07 23:55:00
6:15 PM,38.3,34.2,85,30.06,10.0,SE,5.8,-,N/A,,Overcast,140,2012-11-08 00:15:00
6:35 PM,38.5,34.3,85,30.06,10.0,Calm,Calm,-,N/A,,Overcast,0,2012-11-08 00:35:00
6:55 PM,38.3,34.2,85,30.07,10.0,Calm,Calm,-,N/A,,Overcast,0,2012-11-08 00:55:00
7:15 PM,38.7,34.0,83,30.06,10.0,Calm,Calm,-,N/A,,Overcast,0,2012-11-08 01:15:00
7:35 PM,37.9,34.2,86,30.06,10.0,Calm,Calm,-,N/A,,Overcast,0,2012-11-08 01:35:00
7:55 PM,37.6,33.8,86,30.05,10.0,Calm,Calm,-,N/A,,Overcast,0,2012-11-08 01:55:00
8:15 PM,38.3,34.2,85,30.05,10.0,Calm,Calm,-,N/A,,Overcast,0,2012-11-08 02:15:00
8:35 PM,37.6,34.2,87,30.04,10.0,Calm,Calm,-,N/A,,Overcast,0,2012-11-08 02:35:00
8:55 PM,36.7,33.8,89,30.04,10.0,SSE,4.6,-,N/A,,Overcast,160,2012-11-08 02:55:00
9:15 PM,35.4,33.3,92,30.04,10.0,Calm,Calm,-,N/A,,Overcast,0,2012-11-08 03:15:00
9:35 PM,36.1,33.8,91,30.04,10.0,Calm,Calm,-,N/A,,Mostly Cloudy,0,2012-11-08 03:35:00
9:55 PM,34.2,32.2,92,30.04,10.0,SSW,3.5,-,N/A,,Clear,200,2012-11-08 03:55:00
10:15 PM,35.4,32.7,90,30.04,10.0,Calm,Calm,-,N/A,,Clear,0,2012-11-08 04:15:00
10:35 PM,32.9,32.0,96,30.04,10.0,Calm,Calm,-,N/A,,Clear,0,2012-11-08 04:35:00
10:55 PM,32.5,32.4,99,30.04,10.0,Calm,Calm,-,N/A,,Scattered Clouds,0,2012-11-08 04:55:00
11:15 PM,30.2,29.5,97,30.04,10.0,Calm,Calm,-,N/A,,Clear,0,2012-11-08 05:15:00
11:35 PM,31.6,31.1,98,30.03,10.0,Calm,Calm,-,N/A,,Scattered Clouds,0,2012-11-08 05:35:00
11:55 PM,33.8,32.5,95,30.03,10.0,South,4.6,-,N/A,,Mostly Cloudy,180,2012-11-08 05:55:00